{"data":{"norad_id":66764,"epoch":"2026-09-20T22:53:22.508736Z","epoch_age_seconds":78270,"freshness":"FRESH","line1":"1 66764U 25276DC  26263.95373274  .00001551  00000+0  76694-4 0  9997","line2":"2 66764  97.4119 335.6573 0003125  30.2063 329.9352 15.19295022 44950","mean_motion":15.19295022,"eccentricity":0.0003125,"inclination_deg":97.4119,"raan_deg":335.6573,"arg_perigee_deg":30.2063,"mean_anomaly_deg":329.9352,"bstar":7.6694e-5,"rev_number":4495,"period_min":94.780801565741,"perigee_km":505.81806025027,"apogee_km":510.12187710569,"semimajor_km":6886.106968678,"source":"CELESTRAK","updated_at":"2026-09-21T09:00:16.183916Z"}}